Regional Weather Roundup
Issued by NWS Northern Indiana

Home | Current Version | Previous Version | Graphics & Text | Print | Product List | Glossary On
Versions: 1 2 3 4 5 6 7 8 9 10 11 12 13 14 15 16 17 18 19 20 21 22 23 24 25 26 27 28 29 30 31 32 33 34 35 36 37 38 39 40 41 42 43 44 45 46 47 48 49 50
000
ASUS43 KIWX 240400
RWRIWX

KIWX WEATHER ROUNDUP
NATIONAL WEATHER SERVICE NORTHERN INDIANA
1200 AM EDT SUN MAY 24 2015

NOTE: "FAIR" INDICATES FEW OR NO CLOUDS BELOW 12,000 FEET WITH NO
SIGNIFICANT WEATHER AND/OR OBSTRUCTIONS TO VISIBILITY.

* THESE STATIONS ARE NOT UNDER NWS QUALITY CONTROL. THEY ALSO MAY NOT
  REPORT WEATHER SUCH AS PRECIPITATION OR FOG.

INZ001>027-240500-
NORTHERN INDIANA

CITY           SKY/WX    TMP DP  RH WIND       PRES   REMARKS
SOUTH BEND     CLEAR     61  47  59 CALM      30.24S
GOSHEN         CLEAR     59  50  72 CALM      30.24S
ANGOLA*        CLEAR     57  52  82 CALM      30.26S
FORT WAYNE     PTCLDY    62  49  62 S5        30.27S

$$
INZ028>050-240500-
CENTRAL INDIANA

CITY           SKY/WX    TMP DP  RH WIND       PRES   REMARKS
LAFAYETTE      MOCLDY    58  48  69 E3        30.23S
KOKOMO*        PTCLDY    61  45  55 S5        30.26S
MUNCIE*        MOCLDY    66  45  46 S5        30.27S
INDIANAPOLIS   MOCLDY    67  45  45 E5        30.24S

$$
MIZ043>046-050>051-056>058-064>065-071>073-077>080-240500-
SOUTHWEST LOWER MICHIGAN

CITY           SKY/WX    TMP DP  RH WIND       PRES   REMARKS
BATTLE CREEK   CLEAR     61  48  62 CALM      30.26S
BENTON HARBOR  PTCLDY    56  47  71 E3        30.23R
COLDWATER*     CLEAR     54  50  85 SE3       30.25S
HILLSDALE*     PTCLDY    60  44  54 SE5       30.27S
HOLLAND        MOCLDY    59  47  64 CALM      30.24S
GRAND RAPIDS   PTCLDY    58  45  62 CALM      30.24S
KALAMAZOO      MOCLDY    60  46  59 CALM      30.25S
STURGIS*       CLEAR     63  46  55 CALM      30.25R
THREE RIVERS*  MOCLDY    60  51  71 CALM      30.25R

$$
OHZ001>008-015>018-024>025-240500-
NORTHWEST OHIO

CITY           SKY/WX    TMP DP  RH WIND       PRES   REMARKS
DEFIANCE       CLEAR     59  51  75 CALM      30.26S
FINDLAY        CLEAR     63  46  54 S6        30.27S
TOLEDO EXPRESS CLEAR     59  42  53 CALM      30.27S
TOLEDO METCALF PTCLDY    58  42  55 SE3       30.28S
LIMA           CLEAR     61  46  57 S6        30.28S

$$
AND FOR LAKE MICHIGAN COASTAL AND OPEN LAKE BUOY OBSERVATIONS

STATION/POSITION TEMP    WIND        PRES    VSBY  WAVE
                 AIR SEA DIR/SP/G                  HT/PER
                 (F)     (DEG/KT/KT) (MB)    (MI)  (FT/S)
CALUMET HARBOR    70     170/  6/  7   N/A
MICHIGAN CITY     70     140/  7/  9   N/A
BURNS HARBOR      69     190/  7/ 10 1023.7R
SAINT JOSEPH      64      CALM  /  2 1024.4R
SOUTH LAKE BUOY   48 38  130/ 10/ 10 1023.5R         0
4 MI NW BRIDGMAN  63 58  150/  6/  8   N/A           0
MICHIGAN CITY     60 53  190/  4/  6   N/A           0

$$
&&



USA.gov is the U.S. government's official web portal to all federal, state and local government web resources and services.